This is the latest recevied weather packets stored in our database for station/object KB9ZGZ. If no packets are shown the sender has not sent any weather packets the latest 10 day(s).
| Time | Temp. | Humidity | Pressure | Rain* | Wind** | Luminosity | Snow |
|---|---|---|---|---|---|---|---|
| 1777936534 | 24.44° C | 57% | 997.6 hPa | 0 mm | - | - | - |
| 1777935633 | 24.44° C | 57% | 997.7 hPa | 0 mm | - | - | - |
| 1777934732 | 25° C | 57% | 997.8 hPa | 0 mm | - | - | - |
| 1777933836 | 24.44° C | 61% | 998.1 hPa | 0 mm | - | - | - |
| 1777932935 | 23.89° C | 60% | 998.1 hPa | 0 mm | - | - | - |
| 1777932028 | 23.89° C | 59% | 998.2 hPa | 0 mm | - | - | - |
| 1777931127 | 24.44° C | 58% | 998.2 hPa | 0 mm | - | - | - |
| 1777930225 | 24.44° C | 58% | 998.4 hPa | 0 mm | - | - | - |
| 1777929323 | 25° C | 56% | 998.4 hPa | 0 mm | - | - | - |
| 1777928423 | 25° C | 56% | 998.2 hPa | 0 mm | - | - | - |
| 1777927520 | 24.44° C | 58% | 998.6 hPa | 0 mm | - | - | - |
| 1777926618 | 24.44° C | 57% | 998.6 hPa | 0 mm | - | - | - |
| 1777925719 | 24.44° C | 56% | 998.7 hPa | 0 mm | - | - | - |
| 1777925716 | 24.44° C | 56% | 998.7 hPa | 0 mm | - | - | - |
| 1777924811 | 25° C | 56% | 998.6 hPa | 0 mm | - | - | - |
| 1777923909 | 24.44° C | 56% | 998.7 hPa | 0 mm | - | - | - |
| 1777923007 | 24.44° C | 58% | 998.8 hPa | 0 mm | - | - | - |
| 1777922110 | 24.44° C | 56% | 998.9 hPa | 0 mm | - | - | - |
| 1777921206 | 23.89° C | 57% | 998.9 hPa | 0 mm | - | - | - |
| 1777920362 | 23.89° C | 58% | 998.8 hPa | 0 mm | - | - | - |
| 1777919465 | 23.33° C | 57% | 999.1 hPa | 0 mm | - | - | - |
| 1777918556 | 23.33° C | 59% | 999.1 hPa | 0 mm | - | - | - |
| 1777917625 | 22.78° C | 58% | 999.2 hPa | 0 mm | - | - | - |
| 1777916724 | 22.78° C | 61% | 999.2 hPa | 0 mm | - | - | - |
| 1777915818 | 22.78° C | 59% | 999.3 hPa | 0 mm | - | - | - |
* Rain since midnight (hover to see other rain measurements)
** Current wind speed in m/s (hover to see current wind gust speed)